* Astronomy

Members Login
Username 
 
Password 
    Remember Me  
Post Info
TOPIC: Proton M-DM2 (Cosmos-Glonass) launch


L

Posts: 131433
Date:
RE: Proton M-DM2 (Cosmos-Glonass) launch
Permalink  
 


Update:
The Proton SL-12 Rocket Booster re-entered the Earths atmosphere on the 2nd March, 2010 @  22:33 GMT  ±1 minute.

TLE Data
 
SL-12 RB
1 36404U 10007E 10061.67400946 .07030235 78119-5 11585-3 0 73
2 36404 064.7868 151.5581 0014820 266.9482 086.5772 16.46896547 119

Inclination:                 64.77°
Revolution Number:    16
Predicted Location:     38° N, 170° E

A Proton SL-12 platform re-entered the Earths atmosphere on the 2nd March, 2010 @  06:29 GMT  ±1 minute.

Inclination:                 64.77°
Revolution Number:    4
Predicted Location:     56° N, 32.6° E

TLE Data
SL-12 PLAT
1 36405U 10007F 10061.24926971 .20976770 71432-5 22189-3 0 68
2 36405 064.7690 153.2161 0039207 160.2539 200.0970 16.46431435 36



Cosmos-Glonass

TLE Data
COSMOS     (GLONASS)
1 36400U 10007A 10063.57326486 .00000008 00000-0 00000+0 0 91
2 36400 064.7715 154.3929 0002290 122.5284 038.6306 02.13067584 52

TLE Data
COSMOS     (GLONASS)
1 36401U 10007B 10062.71085510 .00000017 00000-0 00000+0 0 86
2 36401 064.7581 154.4180 0002446 105.5082 114.1462 02.13069051 36

TLE Data
COSMOS     (GLONASS)
1 36402U 10007C 10062.71073162 .00000017 00000-0 00000+0 0 76
2 36402 064.7624 154.4286 0000302 201.3531 018.2221 02.13078960 31


ffff

__________________


L

Posts: 131433
Date:
SL-12 Rocket Booster Re-entry
Permalink  
 


Update:
The Proton SL-12 Rocket Booster was predicted to re-enter the Earths atmosphere on the 2nd March, 2010 @  22:52 GMT  ±4 hours.


Period:                       87.63  
Inclination:                 64.77°
Apogee:                     185
Perigee:                     129
Revolution Number:    16
Predicted Location:     17.5° S, 196.1° E

__________________


L

Posts: 131433
Date:
Permalink  
 

36404b.gif
Expand (27kb, 857 x 564)

__________________


L

Posts: 131433
Date:
RE: Proton M-DM2 (Cosmos-Glonass) launch
Permalink  
 


TLE Data
OBJECT A
1 36400U 10007A 10061.15931021 .00000024 00000-0 00000+0 0 21
2 36400 064.7690 154.4728 0015814 110.8804 358.6814 02.12660393 06

TLE Data
OBJECT B
1 36401U 10007B 10061.15655032 .00000024 00000-0 00000+0 0 27
2 36401 064.7725 154.4953 0005108 115.7763 351.6281 02.12924318 00

TLE Data
OBJECT C
1 36402U 10007C 10061.01623522 .00000024 00000-0 00000+0 0 11
2 36402 064.7725 154.5000 0005108 115.7778 244.0714 02.12924317 06

TLE Data
OBJECT D
1 36403U 10007D 10061.01661501 .00000024 00000-0 00000+0 0 11
2 36403 064.7664 154.4868 0008060 176.6485 183.4263 02.13267944 03


__________________


L

Posts: 131433
Date:
SL-12 Rocket Booster Re-entry
Permalink  
 


A Proton SL-12 Rocket Booster that was launch from the Baikonur Cosmodrome is predicted to re-enter the Earths atmosphere on the 3rd March, 2010 @  00:03 GMT  ±9 hours.

TLE Data
SL-12 R/B(1)
1 36404U 10007E 10061.37127059 .26934596 85349-5 41398-3 0 62
2 36404 064.7740 152.7787 0042875 011.1630 349.2862 16.43265655 65

Inclination:                  64.8°
Revolution Number:    17
Predicted Location:     41.6° N, 144.9° E

__________________


L

Posts: 131433
Date:
RE: Proton M-DM2 (Cosmos-Glonass) launch
Permalink  
 


Three satellites of the Russian GLONASS global positioning system have been successfully placed on the target orbit
The satellites will be working on circular orbits at an altitude of 19,100 kilometres and inclination of 64.8 degrees.

Read more

__________________


L

Posts: 131433
Date:
Permalink  
 

DM-2 separation

__________________


L

Posts: 131433
Date:
Permalink  
 

All systems nominal

Attachments
__________________


L

Posts: 131433
Date:
Permalink  
 

The Proton M-DM2 has successfully launched from the Baikonur Cosmodrome, Kazakhstan, at 21:19 GMT

Attachments
__________________


L

Posts: 131433
Date:
Permalink  
 

L minus 3 minutes

__________________
1 2  >  Last»  | Page of 2  sorted by
Quick Reply

Please log in to post quick replies.



Create your own FREE Forum
Report Abuse
Powered by ActiveBoard